Beamsville

*Note: All times are displayed in the local standard time of the station location.
**Rain - Equipment is designed to accurately record liquid precipitation; under conditions when precipitation is not in liquid form, the data displayed may not properly reflect rainfall values.

Date Max Temp
(°C)
Min Temp
(°C)
Avg Temp
(°C)
Rain (mm) Avg RH (%)
Fri, Feb 15, 2019 4.2 -4.5 0.6 2.8 93.8
Thu, Feb 14, 2019 2.5 -4.8 -1.4 1.6 95.7
Wed, Feb 13, 2019 1.2 -4.7 -2.7 0.8 99.1
Tue, Feb 12, 2019 2.0 -5.3 -2.4 15.6 97.5
Mon, Feb 11, 2019 -2.1 -4.7 -3.5 0.0 94.8
Sun, Feb 10, 2019 -3.0 -9.7 -6.0 0.0 93.3
Sat, Feb 09, 2019 -4.1 -10.3 -7.2 0.0 85.8
DateTime Avg Temp (°C) Rain (mm) RH (%)
Sat, Feb 16, 2019 16:00 -1.9 0.0 76.4
Sat, Feb 16, 2019 15:00 -2.1 0.0 78.2
Sat, Feb 16, 2019 14:00 -2.5 0.0 81.7
Sat, Feb 16, 2019 13:00 -2.9 0.0 81.6
Sat, Feb 16, 2019 12:00 -3.4 0.0 81.7
Sat, Feb 16, 2019 11:00 -3.7 0.0 86.0
Sat, Feb 16, 2019 10:00 -3.8 0.0 85.8
Sat, Feb 16, 2019 09:00 -4.0 0.0 86.6
Sat, Feb 16, 2019 08:00 -4.6 0.0 89.6
Sat, Feb 16, 2019 07:00 -4.2 0.0 93.5
Sat, Feb 16, 2019 06:00 -3.4 0.0 91.1
Sat, Feb 16, 2019 05:00 -3.6 0.0 99.9
Sat, Feb 16, 2019 04:00 -3.8 0.0 99.9
Sat, Feb 16, 2019 03:00 -4.0 0.0 99.8
Sat, Feb 16, 2019 02:00 -3.9 0.0 97.1
Sat, Feb 16, 2019 01:00 -4.1 0.0 95.0
Sat, Feb 16, 2019 00:00 -4.2 0.0 92.7
Fri, Feb 15, 2019 23:00 -4.5 0.0 91.8
Fri, Feb 15, 2019 22:00 -4.3 0.0 90.0
Fri, Feb 15, 2019 21:00 -3.8 0.0 88.2
Fri, Feb 15, 2019 20:00 -2.8 0.0 89.5
Fri, Feb 15, 2019 19:00 -2.3 0.0 88.2
Fri, Feb 15, 2019 18:00 -1.8 0.0 86.2
Fri, Feb 15, 2019 17:00 -0.9 0.0 86.4
Fri, Feb 15, 2019 16:00 -0.5 0.0 88.3
Fri, Feb 15, 2019 15:00 -0.3 0.0 94.7
Fri, Feb 15, 2019 14:00 0.8 0.0 93.4
Fri, Feb 15, 2019 13:00 1.9 0.0 84.2
Fri, Feb 15, 2019 12:00 2.3 0.0 87.2
Fri, Feb 15, 2019 11:00 2.7 0.0 95.2
Fri, Feb 15, 2019 10:00 3.6 0.0 99.9
Fri, Feb 15, 2019 09:00 3.9 0.0 99.9
Fri, Feb 15, 2019 08:00 4.1 0.0 99.9
Fri, Feb 15, 2019 07:00 4.2 0.0 99.9
Fri, Feb 15, 2019 06:00 4.0 0.8 99.9
Fri, Feb 15, 2019 05:00 4.0 0.8 99.9
Fri, Feb 15, 2019 04:00 3.9 1.0 99.9
Fri, Feb 15, 2019 03:00 3.3 0.2 96.4
Fri, Feb 15, 2019 02:00 1.5 0.0 99.4
Fri, Feb 15, 2019 01:00 0.3 0.0 99.9
Fri, Feb 15, 2019 00:00 0.1 0.0 99.9
Thu, Feb 14, 2019 23:00 -0.1 0.0 99.9
Thu, Feb 14, 2019 22:00 -0.3 0.0 99.9
Thu, Feb 14, 2019 21:00 -1.1 0.0 99.9
Thu, Feb 14, 2019 20:00 -1.2 0.0 99.9
Thu, Feb 14, 2019 19:00 -1.7 0.0 99.9
Thu, Feb 14, 2019 18:00 -0.2 0.0 97.6
Thu, Feb 14, 2019 17:00 0.9 0.0 90.4


asterix Register now to access more data! asterix